STARLINK-11189, 60188

Orbit data source: Space-Track

STARLINK-11189, 60188 is a payload satellite owned by SpaceX/Seattle (US) in LEO that was launched on Wed, 03 Jul 2024 UTC via an FALCON 9 launch vehicle from the Air Force Eastern Test Range (AFETR). Payload-class satellites include a variety of spacecraft equipped with specific instruments for various scientific and technological missions. These include communications satellites like Starlink; space stations such as the ISS; scientific satellites like the Hubble; Earth observation satellites from companies like Planet Labs, Umbra, and HawkEye 360; GPS; miniature CubeSats for education and research; and military/defense satellites.

Loading next visibility...
Identifier
60188, 2024-124F
Orbit
LEO
Country
Flag of USUS
Related business
Manufacturer
SpaceX/Seattle
Mission
Operational Commercial Communications
Bus & Motor
STARLINK V2MD, Unknown motor
Mass
960 kg wet, ~910 kg dry
Launch date (UTC)
2024-07-03 (1 year ago)
Launch vehicle
FALCON 9
Launch site
Air Force Eastern Test Range (AFETR)
Object type
Payload
Rocket body
Debris
Shape & HBR
Box + 2 Pan, 18.1 m
Radar Cross Section
36.964 m², Large (>1 m²)

Expand to show TLE details & history
Last TLE update: 8 hours ago

TLE from 8 hours ago
0 STARLINK-11189
1 60188U 24124F   25346.93775923 -.00000556  00000-0  27241-6 0  9990
2 60188  53.1592 229.2834 0001432  96.4974 263.6207 15.69731384 82901
Epoch: 2025-12-12T22:30Z
TLE epoch observation values (Epoch: 2025-12-12T22:30:22.397Z)
Latitude
-0.00002°
Longitude
169.81785°
Altitude
360.688 km
Speed
7.694 km/s
True Right ascension
15h 17m 08s
True Declination
0° 00' 00"
Sunlit
Object was in daylight at epoch
Visualization orbit readout
Latitude
Unknown
Longitude
Unknown
Altitude
Unknown
Speed
Unknown
Apparent Right ascension
Unknown
Apparent Declination
Unknown
Sunlit
N/A
Visualization observer readout
Local Sidereal Time
05:23:53
Azimuth
Unknown
Elevation
Unknown
Doppler factor
Unknown
Orbital elements
Apogee altitude
360.891 km
Perigee altitude
358.961 km
Semi-major axis
6,738.063 km
Eccentricity
0.00014
Inclination
53.1592°
RAAN
229.2834°
Arg. of periapsis
96.4974°
True anomaly
263.60439°
Mean anomaly
263.6207°
Eccentric anomaly
263.61255°
Mean motion
3.9241 °/min
Orbital period
91.74 mins
BSTAR
2.7241e-7
Loading maneuver chart data...
Computing Atmospheric mass density...
Loading historical data...
Loading historical data...
Loading historical data...
Loading historical data...
Loading historical data...
Loading historical data...
Loading historical data...

Documentation

Showing up to 5 results
|